TimeEST,TemperatureF,Dew PointF,Humidity,Sea Level PressureIn,VisibilityMPH,Wind Direction,Wind SpeedMPH,Gust SpeedMPH,PrecipitationIn,Events,Conditions,WindDirDegrees,DateUTC
12:47 AM,5.0,-0.4,78,30.15,10.0,WSW,6.9,-,0.00,,Scattered Clouds,250,2013-02-02 05:47:00
12:54 AM,5.0,-0.0,80,30.30,10.0,WSW,8.1,-,0.00,,Mostly Cloudy,250,2013-02-02 05:54:00
1:54 AM,5.0,-0.0,80,30.30,10.0,WSW,10.4,-,0.00,,Mostly Cloudy,240,2013-02-02 06:54:00
2:54 AM,5.0,-0.0,80,30.28,10.0,WSW,9.2,-,N/A,,Overcast,240,2013-02-02 07:54:00
3:54 AM,6.1,-0.0,76,30.26,10.0,WSW,12.7,20.7,0.00,,Overcast,250,2013-02-02 08:54:00
4:54 AM,6.1,-0.0,76,30.26,10.0,WSW,10.4,-,0.00,,Overcast,250,2013-02-02 09:54:00
5:54 AM,5.0,-0.0,80,30.25,10.0,SW,8.1,-,0.00,,Overcast,230,2013-02-02 10:54:00
7:06 AM,3.2,-0.4,85,30.09,10.0,SSW,6.9,-,N/A,,Scattered Clouds,210,2013-02-02 12:06:00
7:54 AM,5.0,-0.0,80,30.24,10.0,SW,8.1,-,N/A,,Clear,220,2013-02-02 12:54:00
8:54 AM,6.1,1.0,80,30.23,10.0,SW,8.1,-,N/A,,Clear,220,2013-02-02 13:54:00
9:54 AM,9.0,1.9,73,30.21,10.0,SSW,10.4,-,0.00,,Overcast,200,2013-02-02 14:54:00
10:36 AM,10.4,3.2,73,30.05,2.0,SW,8.1,-,0.00,Snow,Light Snow,230,2013-02-02 15:36:00
10:54 AM,12.0,5.0,73,30.19,2.5,SW,10.4,-,0.00,Snow,Light Snow,230,2013-02-02 15:54:00
11:02 AM,12.2,5.0,73,30.03,1.8,SW,11.5,-,0.00,Snow,Light Snow,230,2013-02-02 16:02:00
11:27 AM,12.2,6.8,79,30.01,2.0,Variable,6.9,-,0.00,Snow,Light Snow,0,2013-02-02 16:27:00
11:34 AM,12.2,6.8,79,30.01,2.5,SW,10.4,-,0.00,Snow,Light Snow,230,2013-02-02 16:34:00
11:50 AM,14.0,6.8,73,30.00,1.8,SW,10.4,-,0.00,Snow,Light Snow,230,2013-02-02 16:50:00
11:51 AM,14.0,7.0,74,30.14,1.8,SW,10.4,-,0.00,Snow,Light Snow,230,2013-02-02 16:51:00
12:00 PM,14.0,6.8,73,29.99,2.0,SW,9.2,-,0.00,Snow,Light Snow,230,2013-02-02 17:00:00
12:08 PM,14.0,8.6,79,29.99,1.8,South,9.2,-,0.00,Snow,Light Snow,190,2013-02-02 17:08:00
12:42 PM,15.8,8.6,73,29.96,2.0,SSW,9.2,-,0.00,Snow,Light Snow,200,2013-02-02 17:42:00
12:50 PM,15.8,8.6,73,29.96,1.2,SSW,8.1,-,0.00,Snow,Light Snow,200,2013-02-02 17:50:00
12:54 PM,16.0,10.0,77,30.09,1.2,SSW,9.2,-,0.00,Snow,Light Snow,200,2013-02-02 17:54:00
1:54 PM,17.1,10.9,77,30.05,2.0,SSW,13.8,23.0,0.00,Snow,Light Snow,200,2013-02-02 18:54:00
2:13 PM,17.6,12.2,79,29.91,1.2,SSW,9.2,-,0.00,Snow,Light Snow,200,2013-02-02 19:13:00
2:54 PM,18.0,12.9,81,30.02,1.0,SSW,12.7,19.6,0.00,Snow,Light Snow,210,2013-02-02 19:54:00
3:54 PM,19.0,14.0,81,30.00,1.2,SW,6.9,-,0.00,Snow,Light Snow,220,2013-02-02 20:54:00
4:24 PM,19.4,15.8,86,29.87,0.8,SW,11.5,-,0.00,Snow,Light Snow,230,2013-02-02 21:24:00
4:47 PM,19.4,15.8,86,29.86,1.0,SW,10.4,-,0.00,Snow,Light Snow,220,2013-02-02 21:47:00
4:54 PM,19.0,16.0,88,29.99,1.0,SSW,9.2,-,0.00,Snow,Light Snow,210,2013-02-02 21:54:00
5:04 PM,19.4,15.8,86,29.87,0.8,SW,10.4,-,0.00,Snow,Light Snow,230,2013-02-02 22:04:00
5:28 PM,19.4,15.8,86,29.87,0.5,SW,10.4,-,0.00,Fog-Snow,Snow,230,2013-02-02 22:28:00
5:54 PM,19.0,16.0,88,30.00,1.0,SW,8.1,-,0.00,Snow,Light Snow,220,2013-02-02 22:54:00
6:22 PM,19.4,17.6,93,29.87,1.2,SW,10.4,-,0.00,Snow,Light Snow,230,2013-02-02 23:22:00
6:31 PM,19.4,17.6,93,29.87,1.0,SW,9.2,-,0.00,Snow,Light Snow,230,2013-02-02 23:31:00
6:54 PM,19.0,17.1,92,30.00,1.0,SW,9.2,-,0.01,Snow,Light Snow,230,2013-02-02 23:54:00
7:35 PM,19.4,17.6,93,29.87,1.0,WSW,8.1,-,0.00,Snow,Light Snow,240,2013-02-03 00:35:00
7:54 PM,19.0,17.1,92,30.00,1.2,WSW,10.4,-,0.00,Snow,Light Snow,240,2013-02-03 00:54:00
8:35 PM,19.4,17.6,93,29.87,1.5,WSW,10.4,-,0.00,Snow,Light Snow,250,2013-02-03 01:35:00
8:47 PM,19.4,17.6,93,29.86,2.5,WSW,8.1,-,0.00,Snow,Light Snow,250,2013-02-03 01:47:00
8:54 PM,19.0,17.1,92,29.99,3.0,WSW,10.4,-,0.00,Snow,Light Snow,250,2013-02-03 01:54:00
9:00 PM,19.4,17.6,93,29.86,2.0,WSW,9.2,-,0.00,Snow,Light Snow,250,2013-02-03 02:00:00
9:07 PM,19.4,17.6,93,29.86,1.8,West,9.2,-,0.00,Snow,Light Snow,260,2013-02-03 02:07:00
9:16 PM,19.4,15.8,86,29.86,1.8,WSW,9.2,-,0.00,Snow,Light Snow,250,2013-02-03 02:16:00
9:29 PM,19.4,17.6,93,29.86,2.0,WSW,9.2,-,0.00,Snow,Light Snow,250,2013-02-03 02:29:00
9:54 PM,19.0,17.1,92,29.98,2.0,WSW,11.5,-,0.00,Snow,Light Snow,250,2013-02-03 02:54:00
10:05 PM,19.4,15.8,86,29.86,1.8,West,9.2,-,0.00,Snow,Light Snow,260,2013-02-03 03:05:00
10:13 PM,19.4,15.8,86,29.86,2.5,West,9.2,-,0.00,Snow,Light Snow,260,2013-02-03 03:13:00
10:20 PM,19.4,17.6,93,29.86,3.0,WSW,8.1,-,0.00,Snow,Light Snow,250,2013-02-03 03:20:00
10:44 PM,19.4,15.8,86,29.85,6.0,West,6.9,-,0.00,Snow,Light Snow,260,2013-02-03 03:44:00
10:54 PM,19.0,16.0,88,29.97,8.0,WSW,10.4,-,0.00,,Overcast,250,2013-02-03 03:54:00
11:54 PM,19.0,15.1,85,29.96,6.0,West,6.9,-,0.00,Snow,Light Snow,260,2013-02-03 04:54:00